Regional Weather Roundup
Issued by NWS Charleston, SC

Current Version | Previous Version | Graphics & Text | Print | Product List | Glossary On
Versions: 1 2 3 4 5 6 7 8 9 10 11 12 13 14 15 16 17 18 19 20 21 22 23 24 25 26 27 28 29 30 31 32 33 34 35 36 37 38 39 40 41 42 43 44 45 46 47 48 49 50
000
ASUS42 KCHS 280626
RWRCHS

REGIONAL WEATHER ROUNDUP
NATIONAL WEATHER SERVICE CHARLESTON SC
200 AM EDT TUE APR 28 2015

NOTE: "FAIR" INDICATES FEW OR NO CLOUDS BELOW 12,000 FEET WITH NO
SIGNIFICANT WEATHER AND/OR OBSTRUCTIONS TO VISIBILITY.

NOT ALL STATIONS ARE QUALITY CONTROLLED BY THE NATIONAL
WEATHER SERVICE. USE DATA WITH CAUTION...ESPECIALLY
DEWPOINT OBSERVATIONS.

SCZ027-030-031-034>040-042>050-280700-
...SOUTHEAST SOUTH CAROLINA...

CITY           SKY/WX    TMP DP  RH WIND       PRES   REMARKS
N CHARLESTON   MOCLDY    57  54  89 CALM      29.88S
6HR MIN TEMP:  57; 6HR MAX TEMP:  67;

WATERFRONT PRK   N/A     64 N/A N/A W3          N/A
MOUNT PLEASANT FAIR      57  55  94 MISG      29.90R
PINOPOLIS      NOT AVBL
MONCKS CORNER  FAIR      57  45  62 NE6       29.91R
SUMMERVILLE    FAIR      55  52  88 NE7       29.92R
BEAUFORT MCAS  PTCLDY    59  56  89 CALM      29.88S
6HR MIN TEMP:  59; 6HR MAX TEMP:  67;

BEAUFORT ARPT  FAIR      59  59 100 CALM      29.87F
HILTON HEAD IS MOCLDY    59  59 100 CALM      29.88F
WALTERBORO     MOCLDY    52  52 100 CALM      29.89S
ALLENDALE      FAIR      55  55 100 CALM      29.87F

...SOUTHERN MIDLANDS AND PEE DEE...

CITY           SKY/WX    TMP DP  RH WIND       PRES   REMARKS
GEORGETOWN     NOT AVBL
KINGSTREE      NOT AVBL
ORANGEBURG     MOCLDY    58  42  55 NE8       29.91R
6HR MIN TEMP:  56; 6HR MAX TEMP:  66;

BARNWELL       FAIR      55  54  94 NE13G18   29.90R
AIKEN          FAIR      54  43  66 NE8       29.94S
MANNING        FAIR      55 -18   4 NE3       29.92R
COLUMBIA       MOCLDY    60  34  37 NE7       29.91S
6HR MIN TEMP:  57; 6HR MAX TEMP:  70;

SUMTER         PTCLDY    51  42  72 NE6       29.90S
6HR MIN TEMP:  51; 6HR MAX TEMP:  66;

FLORENCE       PTCLDY    52  39  61 N7        29.92S
6HR MIN TEMP:  52; 6HR MAX TEMP:  65;

MYRTLE BEACH   CLOUDY    57  37  47 N12       29.91S
N MYRTLE BEACH MOCLDY    55  40  56 N7        29.89F
6HR MIN TEMP:  55; 6HR MAX TEMP:  63;


$$

GAZ063-065-086>088-099>101-113>116-118-119-134>141-150-280700-
...SOUTHEAST GEORGIA...

CITY           SKY/WX    TMP DP  RH WIND       PRES   REMARKS
SAVANNAH ARPT  MOCLDY    61  58  90 CALM      29.88S
6HR MIN TEMP:  61; 6HR MAX TEMP:  68;

HUNTER AAF     CLOUDY    61  61 100 CALM      29.85F
6HR MIN TEMP:  61; 6HR MAX TEMP:  66;

FORT STEWART   CLOUDY    61  59  94 CALM      29.85S FOG
6HR MIN TEMP:  61; 6HR MAX TEMP:  67;

STATESBORO       N/A     55  55 100 CALM      29.86F
SYLVANIA       PTCLDY    55  55 100 CALM      29.88F
CLAXTON        FAIR      59  59 100 CALM      29.87S

...CSRA...CENTRAL AND FAR SOUTHEAST GEORGIA...

CITY           SKY/WX    TMP DP  RH WIND       PRES   REMARKS
THOMSON        CLOUDY    55  55 100 CALM      29.93R
AUGUSTA-BUSH   MOCLDY    53  52  96 S3        29.88S FOG
6HR MIN TEMP:  53; 6HR MAX TEMP:  63;

AUGUSTA-DANIEL MOCLDY    63  50  62 CALM      29.88F
SWAINSBORO     NOT AVBL
VIDALIA        MOCLDY    61  57  88 CALM      29.86F
EASTMAN        FAIR      61  57  87 CALM      29.89R
HAZLEHURST     FAIR      64  63  97 SE3       29.85S
ALMA           CLOUDY    62  60  93 NE3       29.85F
6HR MIN TEMP:  61; 6HR MAX TEMP:  68;

WAYCROSS       CLOUDY    67  66  97 E5        29.85S
JESUP          FAIR      63  63 100 CALM      29.87F
BAXLEY         FAIR      63  61  94 CALM      29.85F
BRUNSWICK      CLOUDY    63  61  94 CALM      29.87F
SAINT SIMONS   CLOUDY    67  57  70 E8        29.87F
6HR MIN TEMP:  65; 6HR MAX TEMP:  67;


$$

SCZ027-028-034-036>038-045-046-048>050-GAZ119-141-280700-
...LAKE AND SUPPLEMENTAL COASTAL OBSERVATIONS...

STATION/POSITION TIME  TEMP    WIND        PRES    WAVE   SWELL
                       AIR SEA DIR/SP/G            HT/PER HT/PER/DIR
                 (UTC) (F)     (DEG/KT/KT) (MB)    (FT/S) (FT/S/D)
UPR LAKE MARION  NOT AVBL
WINYAH BAY       0500   59      10/  6     1011.0S
LAKE MURRAY      0500   58      50/  3/  6 1012.9R
ACE BASIN NERRS  NOT AVBL
FORT PULASKI     0512   64 70  130/  2/  3 1012.2S
SAPELO ISLAND    0600   62     110/  3     1011.0S

$$

ANZ835-935-AMZ111-154-330-350-352-354-370-450-454-472-280700-
...C-MAN AND BUOY OBSERVATIONS...

STATION/POSITION TIME  TEMP    WIND        PRES    WAVE   SWELL
                       AIR SEA DIR/SP/G            HT/PER HT/PER/DIR
                 (UTC) (F)     (DEG/KT/KT) (MB)    (FT/S) (FT/S/D)
BUOY 41004       0550   67 72  270/  4/  6 1011.4R   2/ 8   2/ 8
BUOY 41008       0550   67 69  110/  6/  8 1012.0R   2/ 6   2/ 80/ 6
FOLLY BEACH CMAN 0600   64     280/  2/  2 1011.9R
CAPERS NEARSHORE 0508   67     300/  6/  8 1011.4F
FRIPP NEARSHORE  0500   67     190/  4/  6 1011.6R


STATION/POSITION TIME  TEMP    WIND        PRES    WAVE   SWELL
                       AIR SEA DIR/SP/G            HT/PER HT/PER/DIR
                 (UTC) (F)     (DEG/KT/KT) (MB)    (FT/S) (FT/S/D)
5E ST. MARYS GA  0521      70                N/A     2/ 5
FRYING PAN BUOY  0550   66 71   10/ 21/ 25 1011.3F   3/ 8   2/110/ 8
BUOY 41025       0550   60 74  350/ 14/ 17 1010.8F   3/ 4   2/ 60/ 7
CAPE LOOKOUT NC  0600   57     360/  7/  8 1011.3F
BUOY 41002       0550   66 70  360/ 10/ 12 1010.8F   5/ 8   5/ 20/ 8
BUOY 41010       0520   74 79  350/  4/  6 1011.5R
ST AUGUSTINE FL  0600   70 69   40/ 10/ 11 1010.6F


$$



USA.gov is the U.S. government's official web portal to all federal, state and local government web resources and services.